Tracking 19706 objects as of 16-Jun-2019
HD Live streaming from Space Station
objects crossing your sky now

DELTA 1 DEB

Track DELTA 1 DEB now!
10-day predictions


NORAD ID: 7014
Int'l Code: 1973-086E
Perigee: 875.4 km
Apogee: 1,488.4 km
Inclination: 101.7 °
Period: 108.9 minutes
Semi major axis: 7552 km
RCS: 0.109 m2 (medium)
Launch date: November 6, 1973
Source: United States (US)
Launch site: AIR FORCE WESTERN TEST RANGE (AFWTR)

Note: This is SATELLITE DEBRIS
aabbcc
Your satellite tracking list
Your tracking list is empty




NASA's NSSDC Master Catalog

Two Line Element Set (TLE):
1  7014U 73086E   19165.83656752 -.00000024 +00000-0 +44632-4 0  9990
2  7014 101.6839 244.6488 0405818 149.3804 213.1682 13.22610149197866
Source of the keplerian elements: AFSPC